[[{"header":{"parameterUnit":"m.s-1","parameterCategory":1,"la1":30.2991,"la2":30.254,"lo1":-89.0895,"lo2":-89.0444,"dy":0.0017,"dx":0.0017,"nx":28,"ny":28,"refTime":"2025-07-10T09:00:00:Z","depth":0,"parameterNumber":2,"parameterNumberName":"U-component_of_WINDS"},"data":[0,0,0,0,0,0,0,0,0,0,0,0,0,0,0,0,0,0,0,0,0,0,0,0,0,0,0,0,0,0,0,0,0,0,0,0,0,0,0,0,0,0,0,0,0,0,0,0,0,0,0,0,0,0,0,0,0,0,2.0215,2.0215,0,2.0268,2.0269,2.0269,2.0258,2.0257,2.0256,2.0255,2.0308,2.031,2.0312,0,0,0,0,0,0,0,0,0,0,0,0,0,2.0101,2.0103,2.0215,2.0215,2.0216,2.0268,2.0269,2.0269,2.0258,2.0257,2.0256,2.0255,2.0307,2.031,2.0313,0,0,0,0,0,0,0,0,0,0,0,0,0,2.0152,2.0103,2.0215,2.0217,2.0217,2.0268,2.0269,2.027,2.0258,2.0257,2.0255,2.0254,2.0306,2.031,2.0313,2.0364,0,0,2.0324,2.0325,0,0,0,0,0,0,0,0,2.0149,2.0156,2.0216,2.0217,2.0218,2.0255,2.0248,2.0301,2.0259,2.0243,2.0255,2.0253,2.0291,2.0296,2.0309,2.0367,2.0369,2.0324,2.0326,2.0328,2.0329,0,0,0,0,0,0,0,2.0145,2.0153,2.0236,2.0217,2.0218,2.0214,2.022,2.0258,2.0275,2.0244,2.0243,2.025,2.0292,2.0306,2.031,2.037,2.0324,2.0327,2.0329,2.0331,2.0469,2.0471,0,0,0,0,0,0,2.0141,2.0151,2.0234,2.0237,2.0179,2.0217,2.0224,2.0244,2.0274,2.0277,2.0251,2.0249,2.0301,2.0306,2.0312,2.0372,2.0328,2.0331,2.0333,2.0468,2.0469,2.0471,0,0,0,0,0,0,2.0139,2.0149,2.0232,2.0194,2.0204,2.0221,2.0244,2.0246,2.026,2.028,2.0282,2.0263,2.03,2.0307,2.0351,2.0374,2.0332,2.0336,2.0466,2.0468,2.047,2.0493,0,0,0,0,0,0,2.0135,2.0148,2.0168,2.0194,2.0206,2.0271,2.0246,2.0248,2.0267,2.0265,2.0291,2.0294,2.0299,2.0346,2.0354,2.0378,2.0338,2.0464,2.0467,2.047,2.049,2.0496,2.0501,0,0,0,0,0,2.0131,2.0173,2.0169,2.0179,2.0232,2.0272,2.0279,2.0284,2.0269,2.0288,2.03,2.0293,2.037,2.035,2.036,2.0385,2.0462,2.0466,2.0469,2.0488,2.0495,2.0501,0,0,0,0,0,0,2.0148,2.0176,2.0173,2.0224,2.0246,2.027,2.0295,2.0291,2.0318,2.0314,2.032,2.0326,2.0369,2.0382,2.0359,2.0434,2.0414,2.042,2.0425,2.0431,2.0436,2.0432,2.0341,0,0,0,0,0,2.0158,2.0189,2.0211,2.0254,2.0265,2.0278,2.0296,2.0298,2.0321,2.033,2.0345,2.0367,2.0395,2.0414,2.0442,2.0493,2.0497,2.0514,2.0519,2.0524,2.0528,2.0553,2.056,2.0483,2.0483,2.0483,0,0,2.0178,2.0197,2.0216,2.0258,2.0275,2.0305,2.0286,2.032,2.0342,2.0335,2.0376,2.0388,2.0413,2.0459,2.0481,2.0471,2.055,2.0528,2.0531,2.0533,2.0558,2.0565,2.0571,2.0485,2.0485,2.0485,0,0,2.023,2.0249,2.0285,2.0303,2.0329,2.0337,2.0346,2.0371,2.0379,2.0421,2.0415,2.0442,2.0492,2.0509,2.0524,2.0581,2.0575,2.059,2.0617,2.0642,2.0648,2.0653,2.0672,2.0678,2.0595,2.0595,2.0595,0,2.0251,2.0298,2.0304,2.0338,2.0356,2.0351,2.0387,2.0403,2.0437,2.0449,2.0438,2.0499,2.0516,2.0565,2.0579,2.0592,2.0601,2.0587,2.0647,2.0652,2.0657,2.0675,2.0682,2.0597,2.0596,2.0596,2.0596,0,2.0322,2.0355,2.0381,2.0414,2.0434,2.0469,2.0479,2.05,2.05,2.0509,2.0551,2.057,2.0601,2.0613,2.0614,2.0662,2.0655,2.0645,2.0624,2.0666,2.0682,2.0689,2.0599,2.0598,2.0598,2.0597,0,0,2.0386,2.0421,2.043,2.0444,2.0473,2.0497,2.0531,2.0562,2.0578,2.0601,2.0629,2.0671,2.0661,2.0679,2.0681,2.0703,2.0745,2.0691,2.0691,2.0698,2.0797,2.0803,2.0811,2.0742,2.0743,2.0744,2.0794,0,2.0439,2.0499,2.0505,2.0559,2.0587,2.0583,2.0612,2.0632,2.0642,2.0667,2.0677,2.0706,2.0692,2.0702,2.0724,2.0735,2.0764,2.0732,2.0765,2.0767,2.0758,2.082,2.0826,2.0873,2.0801,2.0802,2.0803,0,2.0508,2.0533,2.059,2.0613,2.0625,2.0652,2.0679,2.0704,2.0725,2.0731,2.075,2.0749,2.0783,2.0762,2.0807,2.0785,2.0799,2.0806,2.0808,2.081,2.0786,2.0821,2.0888,2.0894,2.0814,2.0813,2.0812,0,2.0546,2.0594,2.0634,2.0646,2.0675,2.0693,2.0705,2.0726,2.0743,2.0767,2.0778,2.0806,2.082,2.0841,2.0847,2.0832,2.0892,2.0872,2.0895,2.0895,2.0907,2.0906,2.0975,2.0919,2.0919,2.0919,2.0919,0,2.0603,2.0638,2.0651,2.0675,2.0713,2.0719,2.0756,2.0767,2.0785,2.0811,2.0809,2.0833,2.084,2.0865,2.087,2.0906,2.0913,2.0917,2.0918,2.0916,2.0915,2.0924,2.092,2.0921,2.0921,2.092,2.092,0,2.0651,2.0662,2.0704,2.0728,2.0734,2.0761,2.078,2.0803,2.0812,2.0843,2.0851,2.0865,2.0894,2.0903,2.0938,2.0941,2.0982,2.0981,2.0975,2.0974,2.0996,2.0993,2.1072,2.1082,2.1022,2.1022,2.1023,0,2.0686,2.0712,2.0738,2.0755,2.0768,2.0796,2.0813,2.082,2.0838,2.0865,2.0884,2.0912,2.0935,2.0981,2.0994,2.102,2.1018,2.1044,2.1022,2.1019,2.1016,2.1014,2.1015,2.1048,2.1048,2.1049,2.1049,0,2.0746,2.075,2.0776,2.0803,2.0824,2.0845,2.0866,2.088,2.089,2.091,2.094,2.0958,2.0993,2.102,2.1047,2.1059,2.1055,2.1056,2.1063,2.106,2.1055,2.1056,2.0984,2.1054,2.1053,2.1053,2.1053,2.1053,2.0787,2.081,2.0831,2.0859,2.0875,2.0895,2.0916,2.0928,2.0953,2.0982,2.0985,2.1016,2.1036,2.1071,2.1085,2.1108,2.1101,2.1111,2.1113,2.1115,2.1115,2.1053,2.1114,2.1113,2.1113,2.1113,2.1113,0,2.0845,2.0859,2.0885,2.0914,2.0935,2.0931,2.0954,2.0972,2.0999,2.1019,2.1041,2.1074,2.1101,2.1116,2.1142,2.1158,2.1157,2.1165,2.1162,2.1165,2.1122,2.1113,2.1165,2.1165,2.1165,2.1165,2.1165,2.1165,2.0878,2.0915,2.0921,2.0965,2.0978,2.1009,2.1022,2.1039,2.1055,2.1092,2.1114,2.1123,2.114,2.1168,2.1191,2.1195,2.1204,2.1212,2.1214,2.1174,2.1168,2.1163,2.1154,2.1214,2.1215,2.1255,2.1255,2.1256]},{"header":{"parameterUnit":"m.s-1","parameterCategory":1,"la1":30.2991,"la2":30.254,"lo1":-89.0895,"lo2":-89.0444,"dy":0.0017,"dx":0.0017,"nx":28,"ny":28,"refTime":"2025-07-10T09:00:00:Z","depth":0,"parameterNumber":3,"parameterNumberName":"V-component_of_WINDS"},"data":[0,0,0,0,0,0,0,0,0,0,0,0,0,0,0,0,0,0,0,0,0,0,0,0,0,0,0,0,0,0,0,0,0,0,0,0,0,0,0,0,0,0,0,0,0,0,0,0,0,0,0,0,0,0,0,0,0,0,3.1903,3.1903,0,3.193,3.193,3.1931,3.1887,3.1885,3.1884,3.1882,3.1907,3.1909,3.1911,0,0,0,0,0,0,0,0,0,0,0,0,0,3.1809,3.1811,3.1903,3.1903,3.1904,3.193,3.193,3.1931,3.1887,3.1885,3.1883,3.1881,3.1907,3.1909,3.1912,0,0,0,0,0,0,0,0,0,0,0,0,0,3.1845,3.1812,3.1903,3.1885,3.1884,3.193,3.193,3.1931,3.1887,3.1885,3.1883,3.1881,3.1906,3.1909,3.1912,3.1976,0,0,3.1921,3.1923,0,0,0,0,0,0,0,0,3.1843,3.1848,3.1887,3.1886,3.1885,3.1903,3.1907,3.1946,3.1888,3.1886,3.1882,3.1879,3.1907,3.191,3.192,3.1978,3.1979,3.1922,3.1924,3.1925,3.1926,0,0,0,0,0,0,0,3.184,3.1847,3.1914,3.1888,3.1886,3.1874,3.1877,3.1914,3.1909,3.1886,3.1883,3.1887,3.1906,3.1917,3.1921,3.1979,3.1922,3.1924,3.1926,3.1928,3.2089,3.2091,0,0,0,0,0,0,3.1841,3.1845,3.1913,3.1914,3.1858,3.1878,3.1881,3.1899,3.1908,3.1908,3.1889,3.1884,3.1913,3.1917,3.1921,3.1996,3.1925,3.1928,3.193,3.2086,3.2089,3.2092,0,0,0,0,0,0,3.1839,3.1847,3.1912,3.1879,3.1886,3.1882,3.1903,3.1901,3.1912,3.191,3.1909,3.1901,3.1912,3.1917,3.1963,3.1996,3.1929,3.1932,3.2084,3.2087,3.2091,3.2147,0,0,0,0,0,0,3.1836,3.1847,3.1872,3.188,3.1888,3.1954,3.1905,3.1903,3.1918,3.1913,3.1922,3.1921,3.191,3.1958,3.1966,3.2,3.1935,3.2081,3.2085,3.209,3.2142,3.2152,3.2161,0,0,0,0,0,3.1833,3.1886,3.1873,3.1882,3.192,3.1956,3.1961,3.1948,3.1921,3.1945,3.1944,3.1921,3.1992,3.1964,3.1972,3.2007,3.2078,3.2084,3.2089,3.2138,3.2151,3.2161,0,0,0,0,0,0,3.1882,3.1887,3.1873,3.1931,3.1943,3.1949,3.1979,3.1961,3.1981,3.1976,3.1958,3.196,3.201,3.2013,3.1981,3.2069,3.203,3.2038,3.2065,3.2076,3.2086,3.2083,3.1937,0,0,0,0,0,3.19,3.193,3.1932,3.1983,3.199,3.1984,3.1999,3.1988,3.2,3.2005,3.2007,3.2019,3.2044,3.206,3.2083,3.2143,3.2143,3.2171,3.218,3.2188,3.2194,3.2224,3.2236,3.211,3.211,3.211,0,0,3.1936,3.1943,3.1962,3.1993,3.2001,3.2031,3.1989,3.2023,3.2044,3.201,3.2053,3.2055,3.2067,3.212,3.2143,3.2124,3.2229,3.2195,3.2201,3.2203,3.2231,3.2243,3.2254,3.2114,3.2113,3.2112,0,0,3.2018,3.2026,3.2069,3.2078,3.2092,3.2087,3.2098,3.2106,3.2106,3.215,3.2124,3.2149,3.2193,3.2202,3.2212,3.2297,3.2275,3.2305,3.2353,3.2383,3.2393,3.2401,3.243,3.2441,3.2311,3.2311,3.2311,0,3.2061,3.2107,3.2093,3.2129,3.2142,3.2113,3.2155,3.2165,3.2185,3.2194,3.2173,3.2226,3.2232,3.2286,3.2307,3.2316,3.2326,3.2303,3.2393,3.2401,3.2409,3.2436,3.2447,3.2314,3.2314,3.2314,3.2313,0,3.2158,3.219,3.2223,3.2244,3.2261,3.23,3.2291,3.231,3.2297,3.2294,3.2338,3.2345,3.2368,3.238,3.2368,3.2432,3.2419,3.2396,3.2356,3.2425,3.245,3.2461,3.2319,3.2318,3.2317,3.2316,0,0,3.2271,3.2284,3.2296,3.2305,3.2317,3.2341,3.2378,3.2401,3.2417,3.2432,3.2461,3.2499,3.2477,3.2488,3.2477,3.2504,3.2569,3.2476,3.2476,3.2492,3.2638,3.2655,3.2668,3.2555,3.2557,3.2558,3.2637,0,3.2352,3.2416,3.2405,3.2467,3.2496,3.2468,3.25,3.2511,3.2509,3.2532,3.253,3.2556,3.2525,3.2532,3.2557,3.2555,3.2597,3.255,3.2581,3.2582,3.2578,3.2681,3.2699,3.2773,3.2647,3.2648,3.265,0,3.2454,3.2473,3.2539,3.2546,3.2557,3.2586,3.2606,3.2629,3.264,3.2637,3.265,3.2633,3.2669,3.263,3.2678,3.2646,3.2658,3.2659,3.2661,3.2663,3.2619,3.2684,3.2796,3.2807,3.2665,3.2664,3.2663,0,3.2529,3.2571,3.2615,3.2623,3.2633,3.2654,3.2659,3.2668,3.2682,3.2699,3.2708,3.2729,3.274,3.2756,3.2745,3.2718,3.2794,3.2755,3.2791,3.2792,3.2808,3.2807,3.2922,3.2818,3.2818,3.2817,3.2817,0,3.2619,3.266,3.2648,3.2675,3.272,3.2706,3.2749,3.2751,3.2759,3.2785,3.2762,3.2787,3.2772,3.2795,3.2786,3.2826,3.2832,3.2829,3.2826,3.2831,3.2831,3.2838,3.2832,3.282,3.282,3.2819,3.2819,0,3.2709,3.2704,3.275,3.2755,3.2758,3.279,3.2794,3.2819,3.2815,3.2848,3.2855,3.285,3.2876,3.2867,3.2894,3.2889,3.2939,3.293,3.2936,3.2933,3.297,3.2966,3.3093,3.3108,3.2995,3.2996,3.2997,0,3.2767,3.2798,3.2807,3.2823,3.2829,3.2856,3.287,3.2857,3.2873,3.2888,3.291,3.2934,3.2953,3.2995,3.2993,3.3014,3.3005,3.3048,3.3007,3.3011,3.3004,3.3002,3.3004,3.3055,3.3056,3.3058,3.3058,0,3.2869,3.2865,3.2887,3.2908,3.2927,3.2943,3.2956,3.2971,3.2958,3.2977,3.3004,3.3018,3.3046,3.307,3.3089,3.3092,3.3073,3.3071,3.3081,3.3085,3.3086,3.3085,3.2956,3.3068,3.3067,3.3066,3.3066,3.3066,3.2944,3.297,3.298,3.3005,3.3014,3.3028,3.3051,3.305,3.3072,3.3095,3.3086,3.3116,3.3125,3.3148,3.3155,3.3177,3.316,3.3174,3.3178,3.3181,3.3185,3.3084,3.3181,3.318,3.318,3.318,3.318,0,3.3044,3.3049,3.3073,3.3093,3.3113,3.3094,3.3108,3.3125,3.3152,3.3163,3.3182,3.3211,3.3234,3.3234,3.3255,3.3273,3.3265,3.3279,3.3277,3.3278,3.32,3.3189,3.3285,3.3285,3.3285,3.3285,3.3285,3.3285,3.3098,3.314,3.3137,3.3182,3.3187,3.3217,3.3226,3.3238,3.3246,3.3281,3.33,3.33,3.3306,3.3327,3.3346,3.3346,3.3354,3.3371,3.3367,3.3294,3.3283,3.3273,3.3263,3.3373,3.3374,3.3443,3.3444,3.3444]}]]